Location: Sangrey
(48.2845°N, 109.8206°W)
Time: 07:26:09
(UTC+00:00)

BlueWalker 3 - Pass Details

Date: 02 December 2022
Orbit: 499 x 517 km, 53.2° (Epoch: 27 January)

Event Time Altitude Azimuth Distance (km) Brightness Sun altitude
Rises 23:55:52 0° 257° (WSW) 2,636 7.5 -4.9°
Reaches altitude 10° 23:58:06 10° 262° (W) 1,746 6.1 -5.3°
Maximum altitude 00:02:00 57° 341° (NNW) 612 2.3 -5.9°
Drops below altitude 10° 00:05:53 10° 61° (ENE) 1,737 4.0 -6.4°
Enters shadow 00:06:14 - 62° (ENE) 1,878 4.1 -6.5°
